Simultaneous Nadir Overpasses (SNOs) Predictions

Prediction of SNOs between GOES-16 and METOP-A Satellite Orbit:

Table of predicted SNOs for the next 14.0 days since TLE Epoch: 4/24/2021
Index Date Time (GOES-16) GOES-16 Lat,Lon METOP-A Lat,Lon Distance(km) Time Diff (sec)
1 04/25/2021 13:26:48 0.04, -75.20 0.84, -78.77 406.91 80
2 04/26/2021 13:08:48 0.04, -75.20 -0.26, -73.79 160.44 80
3 04/28/2021 01:27:49 -0.04, -75.18 -0.73, -78.44 370.15 80
4 04/29/2021 01:04:29 -0.04, -75.19 0.32, -73.45 197.17 80
5 04/30/2021 13:23:21 0.04, -75.22 0.65, -78.06 323.32 80
6 05/01/2021 13:05:22 0.03, -75.23 -0.45, -73.09 244.27 80
7 05/03/2021 01:24:22 -0.03, -75.21 -0.59, -77.72 285.56 80
8 05/04/2021 01:01:03 -0.02, -75.23 0.52, -72.74 282.43 80
9 05/05/2021 13:19:55 0.02, -75.27 0.45, -77.36 236.74 80
10 05/06/2021 13:01:54 0.02, -75.29 -0.60, -72.37 332.06 80
11 05/08/2021 01:20:56 -0.02, -75.29 -0.38, -77.02 195.81 80
